Wind_Speed
4 6 4 8 5 5 4 1 3 8 7 7 11 9 16 25 23 21 25 27 31 38 36 36 32 28 28 26 24 19 18 19 19 18 16 15 14 15 14 11 14 14 14 16
6 3 7 4 5 7 0 1 5 5 8 5 7 11 12 21 26 27 28 31 36 33 31 34 32 30 29 26 25 21 19 19 20 18 14 10 11 13 12 14 15 13 15 16
5 8 3 3 4 1 1 3 6 5 6 4 8 6 5 8 14 22 28 34 33 36 36 35 34 32 30 29 27 24 21 19 20 16 13 13 13 14 15 15 16 15 16 17
4 5 6 6 6 5 4 5 7 11 8 6 5 4 7 8 11 12 23 28 33 32 32 34 35 34 31 31 29 25 24 19 18 18 16 15 13 10 9 11 9 14 16 15
7 2 5 5 8 6 10 1 3 3 5 6 3 3 7 8 10 11 18 28 32 29 30 33 38 36 32 31 32 26 26 23 19 20 19 17 17 16 14 11 14 11 12 10
6 4 4 7 10 5 1 3 7 4 3 2 4 7 4 9 24 14 18 28 33 26 24 33 37 34 33 32 32 28 27 26 21 21 20 21 18 14 15 14 11 14 12 12
6 6 5 4 4 4 6 6 3 4 4 6 2 3 7 4 7 9 14 9 18 23 22 28 35 32 31 33 32 30 28 28 26 24 24 21 18 15 15 15 15 10 9 7
2 6 1 2 6 8 4 7 5 5 3 4 4 3 4 4 8 10 17 21 25 25 27 22 22 21 26 24 25 28 32 30 31 26 24 21 18 18 17 15 15 13 12 8
4 5 5 5 6 8 5 2 5 6 3 2 3 4 5 3 6 11 19 23 27 29 28 31 25 16 8 10 16 23 30 35 34 29 26 25 20 19 22 19 18 16 14 9
3 3 2 5 2 6 3 5 3 3 2 2 4 4 4 4 5 3 7 23 23 21 23 24 18 11 11 11 7 12 29 34 37 39 30 27 22 18 23 18 21 15 14 10
6 4 7 5 3 3 4 3 6 4 4 5 2 4 5 7 5 8 6 3 5 17 27 26 18 14 18 13 24 13 15 20 24 28 32 29 20 24 19 17 17 13 8 7
7 5 5 7 8 3 3 4 4 5 3 1 3 2 5 6 6 7 7 8 13 18 24 23 22 10 16 19 19 12 9 18 23 39 38 9 18 20 16 15 14 11 7 5
8 3 1 7 6 3 5 1 5 4 3 1 4 4 6 8 9 15 16 14 15 19 22 20 14 14 8 15 13 16 21 15 19 32 13 17 22 18 17 16 11 8 7 8
13 4 8 7 6 4 4 1 1 5 3 3 5 3 8 9 8 11 15 15 10 11 13 9 13 15 14 12 18 19 14 15 19 25 14 20 18 17 16 11 7 6 9 11
5 4 4 1 4 4 6 6 6 5 5 5 5 5 4 12 12 15 15 11 8 11 14 15 9 2 4 6 11 22 23 24 29 31 21 14 12 11 8 5 5 9 13 15
4 2 3 2 2 4 3 5 4 4 2 4 6 4 3 4 22 17 20 22 14 11 16 9 3 5 12 12 11 8 10 11 16 17 10 6 3 6 8 10 14 16 17 17
4 5 3 4 3 0 4 3 4 2 4 7 5 7 6 2 8 20 17 18 16 14 13 13 9 12 12 13 15 16 13 11 11 10 8 6 6 7 9 12 14 16 17 18
4 4 3 2 3 2 6 7 4 7 3 2 3 5 9 9 10 15 16 15 15 15 12 12 11 14 15 15 18 19 18 16 14 13 12 13 14 15 17 17 17 18 18 19
6 4 3 4 2 4 5 1 2 4 1 1 4 6 9 15 9 5 12 13 8 8 8 7 8 14 16 18 15 15 15 13 12 11 10 10 12 14 14 15 17 19 21 23
8 7 4 3 4 5 6 7 4 3 2 4 3 9 15 16 4 3 12 10 10 7 6 8 13 15 16 15 10 7 7 7 9 9 10 12 15 17 18 20 23 25 28 30
3 3 4 3 2 6 6 5 3 2 7 7 11 13 21 5 3 15 14 13 11 11 10 9 6 4 2 2 4 7 8 11 12 14 16 18 20 20 22 24 26 29 31 33
6 5 3 3 3 3 3 1 4 6 7 17 17 19 20 21 23 21 20 20 18 16 11 5 1 4 7 11 15 18 20 19 19 19 19 18 17 18 19 20 21 23 24 27
3 5 5 6 5 4 6 5 7 19 25 21 27 26 29 30 27 23 21 17 12 7 3 3 5 8 11 14 16 16 16 17 16 16 16 17 18 18 20 22 23 24 24 26
2 5 4 3 2 3 12 21 21 23 26 29 30 34 32 32 25 21 16 11 6 3 2 5 9 10 11 11 12 12 10 9 10 11 13 17 21 23 25 27 28 28 29 29
4 5 5 2 4 9 8 24 30 29 33 35 32 31 28 24 20 14 11 6 2 4 7 9 9 8 7 9 9 7 8 9 9 12 18 23 28 32 36 38 37 33 30 28
5 7 5 6 21 11 21 30 33 37 35 33 31 26 18 12 12 9 6 3 1 4 6 7 6 6 7 8 8 10 12 12 12 14 21 26 33 38 41 42 41 34 32 30
Wind_Direction
10 49 265 258 221 203 174 285 221 209 198 153 195 201 179 191 203 208 204 209 208 216 222 218 218 217 216 219 214 210 211 207 212 213 215 221 225 215 217 219 216 222 222 226
14 258 249 274 233 255 16 88 262 245 171 139 162 219 186 187 207 207 208 212 215 214 212 217 215 216 217 217 215 218 218 213 211 214 225 239 239 228 225 223 225 222 223 232
160 246 356 250 268 273 326 232 263 194 137 47 112 326 218 194 205 213 214 221 221 219 215 214 216 215 218 218 215 217 216 216 217 215 213 226 229 230 237 237 230 232 233 233
222 273 236 292 273 126 323 230 272 141 125 197 136 233 270 189 203 204 209 210 215 216 217 213 213 216 218 221 217 219 222 215 210 211 211 218 226 238 249 249 241 228 234 241
248 296 341 296 246 142 232 199 319 156 129 110 220 100 256 141 219 210 207 206 210 202 210 215 213 218 223 222 221 220 221 223 214 210 219 220 215 216 233 237 239 234 239 225
246 287 227 239 280 186 1 61 39 56 93 65 198 162 246 202 217 203 200 203 207 201 210 216 215 219 225 228 227 228 226 227 218 213 220 224 219 212 233 235 241 248 236 226
330 269 258 198 256 15 77 63 352 0 9 227 291 120 240 22 355 237 195 131 199 203 217 217 208 214 222 229 233 232 231 239 227 222 223 222 223 226 236 239 256 260 241 249
134 324 233 152 186 210 172 146 156 209 207 265 6 254 326 74 26 152 166 181 189 197 209 214 221 214 215 227 238 240 239 238 235 229 231 229 229 225 235 241 247 259 266 275
157 273 294 173 218 143 192 179 180 108 30 62 279 297 24 61 42 97 151 171 190 199 210 226 229 220 236 272 260 263 256 242 239 231 231 228 225 232 241 241 252 253 259 258
212 290 240 316 345 43 125 151 56 15 164 236 296 282 214 219 171 151 164 195 197 220 225 235 243 279 285 271 284 258 264 256 249 245 232 226 211 217 238 227 242 236 243 243
141 112 283 40 348 157 29 23 58 119 122 156 187 274 249 212 184 197 192 162 216 248 254 261 240 261 346 330 353 317 300 267 259 315 250 225 212 214 228 231 235 229 215 212
194 141 240 212 318 22 101 128 125 127 219 72 137 266 264 187 217 189 201 219 233 242 252 250 242 306 351 26 30 36 313 315 360 318 331 168 219 216 201 211 196 191 202 230
180 216 87 353 343 20 51 21 96 97 93 169 132 247 200 170 205 211 199 213 233 249 255 249 259 282 354 37 29 342 2 359 3 306 288 210 210 197 184 186 182 196 232 251
133 132 162 180 191 153 128 220 97 125 92 184 219 239 184 186 169 188 201 202 229 233 226 227 292 300 243 344 9 323 340 311 235 227 265 205 197 168 172 172 177 212 246 266
141 122 103 55 128 146 168 180 187 182 164 163 222 210 236 174 169 177 178 187 212 218 204 212 319 194 130 57 270 247 246 236 221 239 194 193 150 159 164 189 247 282 293 294
12 134 110 112 210 194 184 242 225 242 155 109 130 236 105 146 148 167 159 165 161 189 196 208 192 96 104 108 115 134 149 140 149 171 163 145 189 287 312 310 313 312 307 301
57 116 81 180 4 338 26 254 180 184 160 147 143 215 146 169 173 178 178 169 165 166 183 191 202 176 169 165 168 171 169 176 182 181 186 212 255 284 286 285 282 275 274 278
99 77 59 138 33 102 241 307 215 113 40 125 109 178 161 167 198 178 172 156 162 166 174 188 200 202 199 195 193 186 181 187 198 211 224 232 240 247 249 250 250 254 257 260
95 112 89 132 169 290 324 256 277 150 285 18 188 107 122 135 147 147 165 164 183 167 170 171 149 161 161 170 168 180 181 184 191 199 214 230 240 244 247 254 258 261 268 273
115 75 107 106 130 199 246 302 26 106 322 219 147 156 146 159 141 238 181 183 189 197 153 123 118 128 135 129 140 174 192 211 234 257 276 284 286 288 283 281 283 283 284 284
18 25 172 158 169 277 249 280 17 88 237 163 150 169 164 131 154 141 163 151 142 140 139 136 140 161 138 242 279 288 296 296 308 309 307 307 306 306 301 296 294 291 288 288
170 156 191 80 102 268 196 126 175 182 139 151 148 155 146 135 133 133 134 134 137 138 139 143 260 300 302 303 306 312 316 323 328 333 337 337 338 337 329 322 316 309 307 299
176 189 177 162 219 268 285 253 182 163 152 147 152 149 148 141 135 134 133 136 140 155 194 262 301 314 319 323 325 324 329 336 339 344 348 353 352 347 342 336 329 324 316 309
251 162 95 97 341 39 127 141 151 157 153 153 157 152 152 143 144 143 148 153 159 166 302 320 318 317 318 321 330 340 347 354 353 354 359 357 351 346 343 339 334 327 323 319
199 119 122 67 3 92 135 156 154 148 147 146 147 149 147 145 145 149 150 154 192 302 317 319 323 334 344 350 355 3 4 359 352 354 351 347 346 342 338 336 334 328 320 310
190 168 158 208 190 172 185 164 162 155 154 153 151 145 145 150 145 149 151 165 282 318 318 315 324 334 339 353 4 3 352 345 340 347 349 348 347 347 348 343 333 326 320 315
Height
1485 1493 1501 1492 1491 1490 1492 1495 1495 1494 1490 1498 1503 1500 1502 1507 1511 1512 1512 1515 1516 1516 1518 1521 1525 1527 1529 1531 1533 1534 1535 1536 1540 1543 1545 1545 1546 1547 1548 1548 1548 1548 1549 1550
1492 1498 1483 1484 1485 1487 1487 1494 1496 1486 1486 1496 1504 1502 1500 1504 1504 1507 1508 1509 1510 1515 1517 1519 1522 1525 1526 1528 1530 1532 1534 1536 1538 1541 1543 1546 1547 1547 1547 1545 1545 1546 1547 1548
1496 1485 1480 1482 1484 1488 1492 1492 1491 1492 1491 1495 1503 1513 1506 1504 1505 1506 1505 1506 1509 1510 1512 1515 1518 1520 1525 1525 1526 1528 1529 1532 1536 1539 1542 1546 1548 1547 1547 1544 1542 1543 1544 1544
1488 1478 1479 1482 1485 1485 1497 1479 1481 1489 1501 1521 1499 1540 1510 1503 1500 1498 1500 1501 1503 1506 1509 1512 1515 1517 1518 1519 1522 1525 1527 1527 1531 1535 1537 1538 1542 1547 1546 1546 1543 1540 1541 1543
1488 1479 1481 1485 1480 1478 1486 1474 1479 1479 1499 1505 1507 1525 1512 1500 1503 1497 1494 1498 1499 1500 1504 1506 1508 1510 1513 1516 1518 1520 1524 1528 1531 1532 1534 1534 1534 1537 1539 1541 1540 1541 1541 1541
1481 1476 1476 1474 1468 1472 1470 1476 1488 1497 1506 1524 1508 1519 1517 1498 1482 1488 1489 1492 1496 1502 1502 1500 1504 1509 1512 1515 1519 1523 1526 1529 1529 1530 1531 1532 1532 1534 1537 1540 1539 1539 1540 1541
1484 1478 1469 1469 1475 1471 1477 1497 1528 1525 1533 1531 1508 1510 1500 1491 1488 1484 1485 1497 1501 1502 1502 1502 1500 1503 1508 1514 1516 1521 1525 1526 1528 1529 1529 1532 1536 1536 1537 1539 1538 1538 1537 1539
1503 1504 1471 1465 1471 1478 1480 1491 1522 1534 1540 1524 1504 1513 1498 1491 1487 1482 1486 1490 1493 1496 1497 1500 1504 1507 1507 1509 1513 1516 1517 1520 1523 1525 1528 1535 1536 1533 1534 1535 1535 1536 1535 1536
1503 1494 1466 1466 1462 1467 1480 1493 1486 1517 1523 1526 1522 1504 1493 1491 1487 1484 1485 1488 1489 1491 1491 1494 1497 1502 1512 1516 1515 1512 1513 1515 1522 1522 1524 1526 1531 1536 1533 1533 1534 1533 1535 1535
1479 1500 1471 1464 1463 1464 1467 1475 1500 1514 1523 1525 1524 1515 1515 1499 1493 1489 1486 1486 1489 1491 1490 1494 1502 1500 1506 1512 1515 1513 1515 1517 1523 1528 1525 1522 1528 1526 1532 1528 1530 1531 1533 1533
1476 1488 1483 1471 1476 1475 1479 1488 1497 1505 1515 1533 1537 1519 1496 1493 1491 1489 1485 1489 1491 1493 1493 1494 1496 1495 1505 1509 1512 1511 1511 1506 1507 1525 1521 1521 1523 1528 1529 1529 1530 1530 1530 1533
1468 1488 1500 1486 1478 1470 1473 1483 1496 1511 1509 1521 1521 1515 1496 1492 1491 1489 1487 1488 1489 1491 1489 1490 1493 1497 1505 1506 1500 1506 1504 1502 1516 1485 1492 1511 1515 1521 1522 1529 1529 1527 1527 1528
1466 1489 1507 1500 1488 1474 1482 1480 1485 1498 1507 1517 1522 1511 1499 1492 1493 1491 1490 1491 1491 1491 1489 1490 1492 1494 1500 1502 1494 1509 1503 1498 1509 1525 1503 1502 1513 1520 1520 1527 1525 1526 1526 1525
1452 1481 1485 1503 1491 1484 1486 1483 1484 1493 1510 1511 1509 1493 1499 1495 1496 1495 1495 1495 1494 1491 1491 1494 1492 1487 1490 1493 1491 1501 1503 1509 1516 1522 1515 1518 1518 1516 1518 1519 1519 1522 1525 1523
1453 1476 1476 1480 1476 1477 1480 1481 1481 1486 1490 1499 1489 1494 1481 1486 1493 1492 1493 1494 1495 1494 1494 1496 1493 1493 1489 1487 1498 1503 1506 1513 1518 1520 1524 1520 1517 1518 1514 1514 1518 1519 1520 1520
1453 1478 1473 1483 1479 1478 1478 1477 1478 1478 1484 1487 1488 1485 1478 1483 1490 1493 1497 1499 1499 1497 1497 1498 1498 1499 1498 1500 1502 1504 1507 1512 1518 1523 1521 1516 1515 1519 1511 1512 1513 1514 1516 1516
1463 1475 1486 1493 1486 1481 1488 1471 1471 1470 1472 1479 1488 1476 1478 1483 1486 1491 1494 1495 1498 1499 1502 1501 1502 1502 1503 1507 1511 1513 1513 1513 1514 1515 1514 1513 1514 1512 1511 1512 1513 1515 1513 1511
1468 1478 1491 1497 1489 1505 1478 1465 1462 1468 1471 1471 1472 1471 1473 1478 1483 1489 1489 1491 1496 1501 1503 1503 1504 1504 1507 1510 1514 1518 1519 1519 1518 1517 1516 1514 1515 1515 1514 1513 1511 1510 1507 1505
1460 1476 1495 1502 1506 1490 1469 1466 1467 1470 1476 1471 1471 1474 1477 1481 1486 1488 1488 1494 1498 1499 1501 1502 1502 1503 1506 1510 1514 1516 1518 1519 1519 1520 1518 1516 1515 1515 1511 1507 1504 1504 1498 1493
1465 1471 1484 1503 1499 1506 1479 1463 1462 1463 1491 1470 1472 1474 1476 1483 1492 1488 1491 1493 1494 1496 1499 1499 1501 1504 1507 1509 1512 1514 1515 1515 1515 1514 1511 1510 1508 1504 1501 1497 1493 1488 1486 1484
1473 1482 1490 1500 1497 1489 1468 1463 1462 1482 1488 1469 1471 1475 1478 1482 1485 1486 1488 1493 1496 1498 1500 1501 1503 1502 1502 1504 1506 1508 1508 1507 1504 1504 1502 1497 1494 1489 1487 1484 1482 1481 1480 1477
1477 1485 1488 1495 1498 1491 1461 1463 1471 1467 1466 1468 1472 1476 1479 1481 1485 1487 1491 1495 1498 1500 1502 1503 1502 1502 1501 1500 1500 1498 1496 1494 1492 1489 1486 1486 1483 1481 1481 1480 1477 1476 1470 1471
1473 1467 1472 1477 1478 1463 1462 1461 1459 1460 1461 1469 1471 1478 1479 1484 1487 1490 1494 1497 1500 1501 1502 1503 1504 1503 1500 1499 1497 1497 1493 1489 1487 1485 1485 1483 1482 1483 1481 1477 1474 1470 1469 1467
1459 1458 1463 1467 1465 1464 1463 1462 1462 1464 1463 1469 1473 1479 1484 1485 1490 1493 1496 1498 1500 1502 1502 1502 1500 1498 1497 1497 1496 1494 1494 1492 1490 1488 1486 1485 1483 1480 1477 1474 1470 1463 1458 1455
1456 1457 1466 1473 1470 1467 1467 1465 1465 1468 1470 1474 1480 1484 1487 1490 1493 1496 1497 1499 1500 1500 1499 1498 1497 1496 1496 1495 1495 1494 1493 1491 1490 1487 1483 1480 1477 1474 1469 1464 1460 1456 1454 1450
1452 1456 1465 1468 1456 1457 1462 1465 1467 1467 1472 1477 1480 1486 1491 1492 1493 1496 1498 1499 1499 1499 1498 1497 1496 1495 1494 1493 1493 1492 1490 1488 1486 1483 1481 1478 1475 1471 1465 1458 1451 1450 1444 1440